Location: Marquette
(46.5440°N, 87.3950°W)
Time: 14:35:53
(UTC-04:00)

Daily predictions for brighter satellites

Satellite Brightness Start Highest point End
(mag) Time Altitude Azimuth Time Altitude Azimuth Time Altitude Azimuth
deb Chang Zheng 4 3.8 22:04:02 10° NNE 22:08:22 52° E 22:12:41 10° S
BREEZE-M DEB (TANK) 2.7 22:07:09 10° SW 22:09:36 58° SSE 22:15:04 10° ENE
SL-8 R/B 4.0 22:07:22 10° SW 22:11:56 44° SSE 22:16:31 10° ENE
SL-08 ROCKET BODY 4.4 22:07:23 10° S 22:13:23 74° E 22:19:20 10° NNE
COSMOS 2406 3.4 22:07:38 10° NNW 22:13:25 76° WSW 22:19:07 10° SSE
MetOp-B 4.5 22:08:37 10° SE 22:13:48 53° ENE 22:19:00 10° N
Cosmos 2184 Rocket 4.0 22:09:07 10° S 22:15:16 84° E 22:21:29 10° N
Cosmos 1908 Rocket 4.2 22:12:21 10° SSE 22:16:23 37° E 22:20:29 10° NNE
Cosmos 1378 Rocket 4.0 22:15:59 10° N 22:20:07 43° ENE 22:24:14 10° SSE
Cosmos 676 Rocket 4.2 22:15:05 10° NNW 22:20:13 57° ENE 22:25:21 10° SE
Cosmos 1733 Rocket 3.1 22:17:00 10° S 22:21:25 90° ESE 22:25:50 10° N
EO 1 Delta rocket 4.5 22:15:10 10° NNE 22:21:57 65° E 22:27:14 10° S
ATLAS 5 CENTAUR R/B 2.8 22:16:04 10° NW 22:21:57 61° WSW 22:28:15 10° SSE
USA 245 4.1 22:19:18 11° SE 22:22:02 31° ENE 22:25:29 10° N
Meteor 1-10 Rocket 4.5 22:18:45 10° NNW 22:24:38 78° W 22:30:22 10° S
ARGOS 3.8 22:19:58 10° SE 22:24:58 41° ENE 22:29:59 10° N
Cosmos 2056 Rocket 3.4 22:20:18 10° SSW 22:25:27 79° ESE 22:30:36 10° NNE
Cosmos 1184 Rocket 4.3 22:24:37 12° SE 22:26:51 21° E 22:29:25 10° NE
Cosmos 1174 3.5 22:23:40 10° NNW 22:27:04 55° NE 22:29:36 14° SE
Cosmos 1954 Rocket 4.4 22:22:06 10° NNW 22:27:11 51° ENE 22:31:54 12° SE
Cosmos 1371 Rocket 4.3 22:22:16 10° SSW 22:27:35 76° WNW 22:32:54 10° NNE
Cosmos 1862 3.7 22:29:29 10° SSE 22:33:21 45° E 22:37:16 10° NNE
Cosmos 1356 Rocket 4.3 22:30:05 10° SSW 22:34:13 53° WNW 22:38:27 10° N
Cosmos 2278 Rocket 2.9 22:29:40 10° SSE 22:34:37 32° ESE 22:39:34 10° NE
CENTAUR R/B 3.9 22:27:48 10° NW 22:35:14 48° WSW 22:43:04 10° S
Cosmos 1833 Rocket 4.3 22:31:38 10° N 22:36:05 23° NE 22:40:31 10° E
Cosmos 1844 4.0 22:31:58 10° S 22:37:30 50° ESE 22:43:05 10° NE
Nimbus 7 Rocket 4.4 22:31:35 10° NNE 22:37:33 81° ESE 22:43:31 10° SSW
SL-27 R/B 3.3 22:35:22 10° NNW 22:38:56 49° WSW 22:42:26 10° S
Cosmos 2084 4.4 22:38:31 10° S 22:41:32 22° ESE 22:44:33 10° ENE
Cosmos 1825 2.5 22:38:01 10° SSE 22:41:40 46° E 22:45:21 10° NNE
COSMOS 2487 3.0 22:38:45 10° N 22:42:17 46° ENE 22:44:48 17° SE
COS B Rocket 3.3 22:38:40 10° N 22:42:59 86° E 22:46:55 10° S
Cosmos 1844 Rocket 2.6 22:39:46 10° SSW 22:45:24 75° ESE 22:51:03 10° NNE
H-2A R/B 3.1 22:42:42 10° S 22:46:51 44° W 22:50:56 10° NNW
Gbstr 26 Del rocket 4.4 22:41:41 10° WNW 22:47:01 45° N 22:51:21 10° ENE
NOSS 2-2 (D) 3.8 22:45:15 10° SW 22:49:27 79° NW 22:54:31 10° NE
Cosmos 2082 Rocket 3.2 22:45:54 10° NNW 22:51:06 34° NE 22:55:25 14° ESE
CZ-4 SHROUD 3.6 22:50:15 12° S 22:52:59 60° W 22:56:03 10° NNW
CZ-4C R/B 4.2 22:51:49 18° SE 22:54:10 35° ENE 22:57:53 10° N
YAOGAN 6 2.7 22:51:59 13° S 22:55:03 72° WSW 22:58:35 10° NNW
Meteor 1-27 Rocket 3.9 22:49:35 10° NNW 22:55:11 73° W 23:00:41 10° S
Cosmos 1408 2.5 22:52:39 11° S 22:56:10 69° E 22:59:49 10° NNE
Cosmos 1782 4.4 22:55:21 10° NNW 22:59:01 34° W 23:02:40 10° SSW
Nadezhda 3 Rocket 4.2 22:55:16 10° NNW 23:01:37 74° W 23:07:57 10° S
UNK 4.5 22:55:44 10° NNE 23:02:03 81° ESE 23:08:06 10° SSW
Envisat 4.3 22:59:00 10° SSW 23:03:39 36° W 23:08:21 10° NNW
NOSS 2-2 (C) 4.3 23:00:02 10° SW 23:04:12 60° NW 23:09:16 10° NE
Okean 2 Rocket 3.1 23:02:50 15° S 23:06:27 61° E 23:10:49 10° NNE
Landsat 7 4.0 23:05:01 20° SE 23:08:10 57° ENE 23:12:51 10° N
Cosmos 1238 Rocket 2.7 23:05:09 10° NNW 23:08:10 58° W 23:10:41 16° S
Cosmos 1242 Rocket 2.6 23:05:03 10° N 23:08:41 68° ENE 23:10:41 25° SSE
H-2A R/B 2.5 23:05:40 19° SE 23:09:21 53° ENE 23:14:31 10° N
DELTA 2 DEB (DPAF) 4.3 23:09:30 22° SE 23:12:15 60° ENE 23:16:41 10° N
Cosmos 1606 4.0 23:09:03 10° NNW 23:12:44 38° W 23:16:23 10° SSW
Cosmos 1420 Rocket 4.2 23:08:59 14° S 23:13:18 49° ESE 23:18:21 10° NNE
SPOT 5 4.2 23:08:54 10° SSW 23:13:51 42° W 23:18:55 10° NNW
Cosmos 1727 Rocket 4.4 23:12:03 10° N 23:18:01 48° ENE 23:21:45 22° SE
NOAA 11 4.3 23:14:13 16° S 23:18:39 76° WSW 23:24:11 10° NNW
Cosmos 2341 Rocket 4.2 23:16:05 10° SSW 23:22:23 75° W 23:28:42 10° N
Terra 2.0 23:21:17 25° SE 23:23:55 58° ENE 23:28:36 10° N
Spot 4 4.4 23:21:25 24° SE 23:24:00 45° ENE 23:28:38 10° N
SPOT 1/Viking Rocket 4.0 23:20:10 14° S 23:24:29 57° W 23:29:39 10° NNW
IGS 5A 3.8 23:25:17 29° SE 23:27:10 53° ENE 23:31:14 10° N
Cosmos 1959 Rocket 4.5 23:22:49 19° S 23:27:16 62° E 23:33:17 10° NNE
Cosmos 1452 Rocket 3.8 23:23:28 10° SSW 23:28:42 70° WNW 23:34:00 10° NNE
Cosmos 1782 Rocket 3.9 23:24:25 10° SSW 23:28:48 66° W 23:33:17 10° N
Timation 2 Rocket 3.9 23:25:21 10° NNW 23:31:23 83° WSW 23:35:02 25° SSE
Cosmos 614 Rocket 3.9 23:26:37 10° NNW 23:31:45 80° ENE 23:34:27 28° SSE
Cosmos 1140 Rocket 3.7 23:29:48 10° NNW 23:34:54 65° WSW 23:37:56 24° S
SAR-Lupe-2 4.0 23:36:53 36° ESE 23:37:50 46° ENE 23:41:18 10° N
DNEPR-1 R/B 3.9 23:33:18 10° NW 23:38:54 72° SW 23:41:08 31° SSE
Cosmos 1975 Rocket 4.1 23:37:52 10° NNW 23:41:54 39° W 23:44:55 16° SSW
BREEZE-M DEB (TANK) 2.5 23:41:07 10° W 23:43:12 48° N 23:47:09 10° ENE
CARTOSAT-1 3.5 23:44:45 33° S 23:46:39 83° WSW 23:50:59 10° NNW
SL-8 Rocket 4.1 23:41:38 14° SSW 23:47:04 81° W 23:53:21 10° N
CZ-4B R/B 4.2 23:43:34 10° N 23:48:26 50° WNW 23:53:07 10° SW
USA 234 3.2 23:43:22 10° ENE 23:49:51 61° SE 23:56:17 10° SW
Meteor 1-25 Rocket 4.4 23:47:59 29° SSE 23:50:57 59° E 23:56:41 10° NNE
DMSP B5D2-2 4.0 23:48:37 10° NNE 23:53:51 75° ESE 23:56:39 28° S
SL-8 R/B 3.8 23:49:31 10° W 23:54:21 80° NNW 23:59:11 10° ENE
Cosmos 1536 Rocket 3.5 23:50:15 10° N 23:54:46 89° W 23:56:28 38° S
